Location: Newark
(48.5178°N, 4.2361°E)
Time: 02:09:06
(UTC+00:00)

ISS - Visible Passes

Search period start: 22 January 2021 00:00
Search period end: 01 February 2021 00:00
Orbit: 418 x 421 km, 51.6° (Epoch: 22 January)

Date Brightness Start Highest point End Pass type
(mag) Time Alt. Az. Time Alt. Az. Time Alt. Az.
22 Jan -3.2 17:42:14 10° SW 17:45:28 45° SSE 17:47:08 24° E visible
22 Jan -1.0 19:18:56 10° W 19:20:06 20° W 19:20:06 20° W visible
23 Jan -3.6 18:31:28 10° WSW 18:34:44 69° NNW 18:34:44 69° NNW visible
24 Jan -3.8 17:44:03 10° WSW 17:47:26 89° NNW 17:49:20 24° ENE visible
24 Jan -1.0 19:21:11 10° WNW 19:22:18 19° WNW 19:22:18 19° WNW visible
25 Jan -3.2 18:33:40 10° W 18:36:51 49° NNW 18:36:51 49° NNW visible
26 Jan -3.4 17:46:10 10° W 17:49:30 57° NNW 17:51:24 23° ENE visible
26 Jan -1.0 19:23:18 10° WNW 19:24:22 18° WNW 19:24:22 18° WNW visible
27 Jan -3.1 18:35:50 10° WNW 18:38:53 46° NNW 18:38:53 46° NNW visible
28 Jan -3.2 17:48:19 10° WNW 17:51:37 47° N 17:53:25 23° ENE visible
28 Jan -1.0 19:25:18 10° WNW 19:26:23 19° WNW 19:26:23 19° WNW visible
29 Jan -3.4 18:37:51 10° WNW 18:40:56 57° NNW 18:40:56 57° NNW visible
30 Jan -3.4 17:50:22 10° WNW 17:53:42 52° N 17:55:31 23° ENE visible
30 Jan -1.1 19:27:14 10° WNW 19:28:29 21° WNW 19:28:29 21° WNW visible
31 Jan -3.8 18:39:45 10° WNW 18:43:07 83° SW 18:43:07 83° SW visible
